Regional Weather Roundup
Issued by NWS Upton, NY

Current Version | Previous Version | Text Only | Print | Product List | Glossary On
Versions: 1 2 3 4 5 6 7 8 9 10 11 12 13 14 15 16 17 18 19 20 21 22 23 24 25 26 27 28 29 30 31 32 33 34 35 36 37 38 39 40 41 42 43 44 45 46 47 48 49 50
258
ASUS41 KOKX 182308
RWROKX

REGIONAL WEATHER ROUNDUP
NATIONAL WEATHER SERVICE NEW YORK NY
700 PM EDT FRI AUG 18 2017

NOTE: "FAIR" INDICATES FEW OR NO CLOUDS BELOW 12,000 FEET WITH NO
SIGNIFICANT WEATHER AND/OR OBSTRUCTIONS TO VISIBILITY.

NYZ071-072-176-178-NJZ106-104-190000-
NEW YORK CITY METRO AREA

CITY           SKY/WX    TMP DP  RH WIND       PRES   REMARKS
Central Park   LGT RAIN  79  76  90 CALM      29.82S
Bronx Bot Gard   N/A     77  75  94 E6        29.82R
LaGuardia APRT CLOUDY    80  77  90 VRB6      29.79R THUNDER
Kennedy INTL   CLOUDY    77  77 100 S18       29.81R
Breezy Point     N/A     75 N/A N/A S13         N/A
Newark/Liberty TSTM      81  77  88 E5        29.78F
Teterboro      LGT RAIN  81  77  88 S5        29.77F
$$

NYZ177-179-078>081-190000-
LONG ISLAND NEW YORK

CITY           SKY/WX    TMP DP  RH WIND       PRES   REMARKS
Jones Beach      N/A     77 N/A N/A S14G21      N/A
Matinecock PT    N/A     77 N/A N/A SW5         N/A
Farmingdale    CLOUDY    78  76  93 SW14G22   29.81S
MacArthur/ISP  CLOUDY    78  77  96 SW13G23   29.81S FOG
Shirley        CLOUDY    78  76  93 S9        29.83R
Mt Sinai Harb    N/A    N/A N/A N/A SW8G14      N/A
Westhampton    CLOUDY    76  72  87 S12G21    29.85S
East Hampton   CLOUDY    73  72  94 S7        29.84S
Montauk          N/A     74  73  97 VRB7      29.86R
$$

NYZ052-065-067-190000-
HUDSON VALLEY

CITY           SKY/WX    TMP DP  RH WIND       PRES   REMARKS
White Plains   LGT RAIN  77  75  93 S8        29.80F FOG
Larchmont Harb   N/A     77 N/A N/A S7          N/A
Croton On Huds   N/A     79 N/A N/A SE5         N/A
Newburgh       LGT RAIN  72  72 100 W14       29.83R FOG
Montgomery     RAIN      72  70  93 CALM      29.79F
Poughkeepsie   LGT RAIN  76  69  79 CALM      29.77F
Albany         MOCLDY    77  73  87 S7        29.78R
$$

NJZ001-105-106-008-010-013-015-019>022-104-190000-
NEW JERSEY

CITY           SKY/WX    TMP DP  RH WIND       PRES   REMARKS
Newark/Liberty TSTM      81  77  88 E5        29.78F
Teterboro      LGT RAIN  81  77  88 S5        29.77F
Caldwell       RAIN      79  79 100 SE6       29.78F FOG
Somerville     LGT RAIN  75  74  96 S3        29.77S FOG
Linden         TSTM      82  76  84 SE5       29.79S
Perth Amboy      N/A     75 N/A N/A S23G35      N/A
Sussex         LGT RAIN  78  77  96 N3        29.79F FOG
Andover          N/A     75  71  87 VRB3      29.79F
Trenton        LGT RAIN  74  71  91 SW7       29.80R
Millville      CLOUDY    83  81  94 VRB3      29.78F HX  97
Atlantic City  CLOUDY    82  78  88 S17G31    29.80S HX  91
Wrightstown    TSTM      80  77  91 W10G16    29.79R
Toms River     CLOUDY    79  78  97 S7        29.81R
Belmar         CLOUDY    77  74  90 SW5       29.84R
$$

PAZ047>061-062-071-190000-
EASTERN PENNSYLVANIA

CITY           SKY/WX    TMP DP  RH WIND       PRES   REMARKS
Philadelphia   TSTM      76  73  91 W10       29.81R
Allentown      CLOUDY    76  73  91 MISG      29.79S
Scranton       CLOUDY    80  72  76 CALM      29.79S
$$

CTZ002-004>006-009-010-012-RIZ004-006-007-MAZ004-011-015-190000-
SOUTHERN NEW ENGLAND
 IN CT

CITY           SKY/WX    TMP DP  RH WIND       PRES   REMARKS
Bradley INTL   LGT RAIN  78  76  93 S8        29.81R
Hartford       LGT RAIN  79  76  90 S6        29.80R
Danbury        LGT RAIN  78  76  93 S7        29.82S FOG
Wtrbury/Oxford LGT RAIN  75  75 100 S5        29.84R FOG
Norwalk Harbor   N/A     75 N/A N/A S8          N/A
Bridgeport     CLOUDY    78  75  90 S12       29.81R
Meriden        CLOUDY    77  75  93 S8        29.81F
New Haven      CLOUDY    77  74  90 S6        29.82S FOG
Chester        FOG       75  75 100 S10       29.84S VSB 1
Groton         CLOUDY    73  71  93 S10       29.83R FOG
Wilimantic     CLOUDY    77  76  96 S7        29.83R FOG

 IN RI

CITY           SKY/WX    TMP DP  RH WIND       PRES   REMARKS
Providence     FOG       75  75 100 S14       29.85R VSB 1
Block Island   RAIN      73  72  96 S16         N/A  FOG
Westerly       CLOUDY    74  72  93 S10       29.85S FOG
 IN MA

CITY           SKY/WX    TMP DP  RH WIND       PRES   REMARKS
Boston         CLOUDY    75  72  90 S14       29.82S
Worcester      LGT RAIN  73  71  93 S10       29.85S VSB 1/2
Westfield      LGT RAIN  77  76  96 S6        29.81R
Provincetown   RAIN      72  70  93 S16G24    29.87S FOG
Nantucket      CLOUDY    70  69  97 S15       29.90S
$$

ANZ330-335-338-340-345-350-353-355-190000-
COASTAL MARINE OBSERVATIONS


STATION/POSITION TIME  SKY/WX   TEMP    WIND        PRES    VSBY  WAVE
                                AIR SEA DIR/SP/G                  HT/PER
                 (UTC)          (F)     (DEG/KT/KT) (MB)    (MI)  (FT/S)
NY HARB ENTRANCE 2150            78 76  200/ 19/ 23 1007.9          4/ 5
GREAT SOUTH BAY  2230            77 78  210/ 16/ 17   N/A
23 SSW MONTAUK P 2150            74 71              1010.6          4/ 5
15 E BARNEGAT LI 2230               77                N/A           5/ 6
HUDSON CANYON    2150            77 75  180/ 19/ 21 1009.4          4/ 5
KINGS POINT      2230            77 75  210/ 12/ 13 1008.6
EXECUTION ROCKS  NOT AVBL
WESTERN LI SOUND NOT AVBL
CENTRAL LI SOUND NOT AVBL
EASTERN LI SOUND NOT AVBL
ROBBINS REEF     2224                   120/  5/  8 1009.0
$$


>>>>>>>>>>>>>>>>>>>>>>>>>>>> KEY <<<<<<<<<<<<<<<<<<<<<<<<<<<
>                                                          <
>     SKY/WX - Sky Condition/Present Weather               <
>     TMP    - Temperature in Fahrenheit                   <
>     DP     - Dew Point in Fahrenheit                     <
>     RH     - Relative Humidity in Percent                <
>     WIND   - Direction (from) and Speed in MPH           <
>     PRES   - Mean Sea Level Pressure (inches of Hg)      <
>     WCI    - Wind Chill Index                            <
>     VSB    - VISIBILITY IN MILES                         <
>     HX     - HEAT INDEX                                  <
>     TC     - TEMPERATURE IN CELSIUS                      <
>     VRB    - VARIABLE WIND DIRECTION                     <
>                                                          <
>>>>>>>>>>>>>>>>>>>>>>>>>>>> KEY <<<<<<<<<<<<<<<<<<<<<<<<<<<




USA.gov is the U.S. government's official web portal to all federal, state and local government web resources and services.